CAPE
1791 1718 1546 1174 801 889 920 686 812 920 954 757 445 312 365 356 339 304 336 280 435 476
2011 1764 965 772 42 43 825 875 537 598 511 555 423 280 210 102 53 47 57 215 350 486
1077 1007 1016 1015 815 740 347 369 421 396 431 316 220 95 2 0 2 0 3 109 109 230
681 589 537 698 546 636 471 367 125 96 66 33 27 0 0 1 0 0 5 30 76 134
352 225 89 49 48 110 97 273 243 67 7 0 0 0 0 0 1 49 5 27 52 54
220 385 359 516 432 445 548 420 324 164 45 32 0 0 4 37 15 53 37 0 0 15
635 557 412 259 216 92 63 4 0 0 0 0 0 0 0 0 0 0 0 2 14 1
433 221 131 105 44 22 49 48 40 84 51 0 0 0 0 0 0 0 0 0 0 0
212 86 16 0 0 0 0 0 0 0 0 0 0 0 0 0 0 0 0 0 0 0
62 15 0 0 0 0 0 0 0 0 0 0 0 0 0 0 0 0 0 0 0 0
3 0 0 0 0 0 0 0 0 0 0 0 0 0 0 0 0 0 0 0 0 0
0 0 0 0 0 0 0 0 0 0 0 0 0 0 0 0 0 0 0 0 0 0
0 0 0 0 0 0 0 0 0 0 0 0 0 0 0 0 0 0 0 0 0 0
0 0 0 0 0 0 0 0 0 0 0 0 0 0 0 0 0 0 0 0 0 0
CIN
-61 -47 -36 -29 -25 -30 -24 -38 -31 -30 -28 -32 -57 -38 -46 -76 -51 -51 -33 -30 -82 -57
-11 -33 -38 -76 -239 -332 -52 -34 -72 -67 -62 -51 -69 -64 -71 -77 -91 -146 -130 -65 -60 -38
-127 -106 -90 -81 -94 -74 -125 -123 -92 -76 -71 -70 -59 -72 -50 0 -63 0 -74 -70 -57 -13
-179 -183 -164 -103 -94 -75 -92 -95 -144 -162 -145 -127 -27 0 0 -32 0 0 -74 -98 -75 -22
-237 -251 -331 -329 -303 -248 -243 -107 -88 -156 -191 0 0 0 0 -7 -7 -44 -83 -65 -19 -29
-279 -170 -155 -94 -94 -87 -61 -62 -62 -87 -107 -82 0 0 -16 -33 -21 -7 -10 0 0 -13
-119 -115 -127 -160 -156 -224 -237 -158 0 0 0 0 0 0 0 0 0 0 0 -10 -7 -1
-149 -195 -231 -234 -292 -305 -237 -228 -244 -138 -160 0 0 0 0 0 0 0 0 0 0 0
-186 -299 -442 0 0 0 0 0 0 0 0 0 0 0 0 0 0 0 0 0 0 0
-313 -396 0 0 0 0 0 0 0 0 0 0 0 0 0 0 0 0 0 0 0 0
-208 0 0 0 0 0 0 0 0 0 0 0 0 0 0 0 0 0 0 0 0 0
0 0 0 0 0 0 0 0 0 0 0 0 0 0 0 0 0 0 0 0 0 0
0 0 0 0 0 0 0 0 0 0 0 0 0 0 0 0 0 0 0 0 0 0
0 0 0 0 0 0 0 0 0 0 0 0 0 0 0 0 0 0 0 0 0 0
Wind_Speed
7 4 2 19 29 29 22 2 5 8 9 9 11 6 11 18 19 23 24 24 19 20
1 2 14 10 7 5 5 8 15 15 14 11 10 6 7 9 17 23 24 23 27 23
16 17 17 12 12 14 17 19 19 18 16 14 11 11 11 8 16 18 22 23 25 26
19 19 18 17 17 18 19 20 19 18 17 17 15 14 13 12 12 11 3 23 26 28
17 18 19 19 20 19 19 20 20 19 17 18 18 17 13 11 9 17 6 11 18 15
17 18 19 20 20 21 20 21 20 19 19 20 20 19 17 15 13 14 11 9 11 17
18 18 18 19 20 21 21 21 22 21 21 20 20 20 19 18 17 15 16 17 18 21
17 18 18 19 20 21 21 22 22 21 20 20 20 20 20 20 20 20 21 21 23 23
17 18 19 20 20 21 22 22 22 22 21 20 20 20 21 21 22 23 24 25 26 26
17 18 20 20 21 22 23 23 23 23 22 22 21 22 23 22 22 22 22 23 25 27
18 19 20 21 21 22 23 24 23 23 23 23 21 20 21 21 22 23 23 25 26 27
18 19 20 22 23 24 24 24 24 23 24 24 24 21 20 20 22 24 25 27 29 29
18 19 20 22 22 23 23 22 23 24 25 27 25 23 20 19 22 24 26 27 29 31
20 19 19 21 22 21 22 23 25 25 22 21 23 23 21 21 22 25 28 31 33 35
Wind_Direction
191 198 303 334 303 274 243 315 13 20 17 21 2 14 358 336 328 314 297 284 293 287
228 347 349 18 78 149 223 14 5 6 9 23 32 23 26 356 338 299 310 303 275 280
351 351 3 22 17 10 3 359 0 3 7 12 19 10 9 11 322 319 308 294 284 276
353 356 358 5 12 10 8 6 6 8 11 11 15 14 13 12 356 338 316 283 277 273
7 9 9 9 13 13 13 11 14 19 23 17 19 16 22 29 29 10 24 292 291 310
22 21 18 17 17 19 22 23 24 22 21 18 18 19 19 21 16 9 13 1 322 317
24 25 23 20 17 16 16 15 14 13 13 14 12 9 6 2 357 353 344 332 327 309
28 25 20 16 14 12 10 8 8 8 10 10 8 6 4 359 349 342 332 325 322 320
21 16 12 9 5 3 1 1 360 359 359 358 356 353 350 346 341 335 328 322 320 320
13 6 2 359 356 353 352 352 352 352 351 349 348 345 342 342 342 339 337 333 328 323
3 360 359 356 355 353 351 349 349 349 349 348 348 349 346 344 340 338 335 331 329 326
2 360 357 353 350 348 346 345 345 346 347 346 344 343 344 344 340 336 332 328 325 322
0 358 355 352 351 351 351 350 349 345 345 344 345 346 348 344 339 333 330 328 326 323
357 356 357 354 353 353 352 350 347 347 350 352 349 346 345 341 338 332 329 326 323 322